Regional Weather Roundup
Issued by NWS Burlington, VT

Home | Current Version | Previous Version | Text Only | Print | Product List | Glossary On
Versions: 1 2 3 4 5 6 7 8 9 10 11 12 13 14 15 16 17 18 19 20 21 22 23 24 25 26 27 28 29 30 31 32 33 34 35 36 37 38 39 40 41 42 43 44 45 46 47 48 49 50
000
ASUS41 KBTV 270830
RWRBTV
VERMONT REGIONAL WEATHER ROUNDUP
NATIONAL WEATHER SERVICE BURLINGTON VT
400 AM EDT FRI MAR 27 2015

NOTE: "FAIR" INDICATES FEW OR NO CLOUDS BELOW 12,000 FEET WITH NO
SIGNIFICANT WEATHER AND/OR OBSTRUCTIONS TO VISIBILITY.

* THESE REPORTS ARE NOT UNDER NWS QUALITY CONTROL AND/OR DO NOT
  REPORT WEATHER SUCH AS PRECIPITATION AND FOG.

VTZ001>019-270900-
_____VERMONT_____


CITY           SKY/WX    TMP DP  RH WIND       PRES   REMARKS
BURLINGTON     LGT RAIN  34  32  92 CALM      29.72F FOG
MONTPELIER     CLOUDY    32  31  96 CALM      29.72R FOG
MORRISVILLE    CLOUDY    34  31  88 CALM      29.71F
ST. JOHNSBURY*   N/A     34  33  96 MISG      29.67S
LYNDONVILLE*   CLOUDY    33  31  94 CALM      29.68F FOG
MIDDLEBURY*    FOG       34  34 100 CALM      29.70R VSB 1/2
RUTLAND*       CLOUDY    34  34 100 CALM      29.69R
SPRINGFIELD    CLOUDY    33  32  96 CALM      29.70R FOG
HIGHGATE*      FOG       32  32 100 CALM      29.72F VSB 1
NEWPORT*       CLOUDY    32  31  97 CALM      29.69F
BENNINGTON     FOG       35  35 100 W5        29.69R VSB 1/2
SUTTON*          N/A     32 N/A N/A MISG        N/A
GALLUP MILLS*    N/A     32 N/A N/A MISG        N/A
MT. MANSFIELD*   N/A     25 N/A N/A CALM        N/A

_____LAKE CHAMPLAIN_____


CITY           SKY/WX    TMP DP  RH WIND       PRES   REMARKS
BURTON ISLAND*   N/A     32  32 100 NE2         N/A
COLCHESTER RF*   N/A     34  34 100 NE3         N/A
DIAMOND ISL*     N/A     32  32 100 E2          N/A

$$

NYZ007-026>031-035-052-083-270900-
_____NORTHERN NEW YORK_____


CITY           SKY/WX    TMP DP  RH WIND       PRES   REMARKS
PLATTSBURGH    CLOUDY    32  32 100 CALM      29.71F FOG
SARANAC LAKE   CLOUDY    32  31  96 W3        29.65F
MASSENA        LGT SNOW  33  33 100 SW5       29.73F FOG
OGDENSBURG*    CLOUDY    34  34 100 SW6       29.74R FOG
POTSDAM*       LGT SNOW  34  34 100 SW7       29.73R
STARK FALLS*     N/A     32 N/A N/A SW6         N/A
WATERTOWN      CLOUDY    35  32  88 SW6       29.76R FOG
FT DRUM        CLOUDY    32  32 100 W10       29.73R FOG
ALBANY         CLOUDY    37  32  82 NW3       29.73F
GLENS FALLS    FOG       35  33  92 CALM      29.73R VSB 1/4

$$
NHZ002-005-011-270900-
_____NEW HAMPSHIRE_____


CITY           SKY/WX    TMP DP  RH WIND       PRES   REMARKS
LEBANON        CLOUDY    34  32  92 CALM      29.68S FOG
KEENE          CLOUDY    36  34  93 CALM      29.69R
MT WASHINGTON  FOG       18  18 100 NW38        N/A  VSB 0   WCI  -4
PLYMOUTH       CLOUDY    37  36  94 CALM      29.66S
WHITEFIELD     CLOUDY    33  32  96 CALM      29.66F

$$

_____REGIONAL QUEBEC LOCATIONS_____


CITY           SKY/WX    TMP DP  RH WIND       PRES   REMARKS
MONTREAL       CLOUDY    34  32  93 SW5       29.72S FOG
QUEBEC CITY    CLOUDY    34  32  93 SW10      29.65S FOG
SHERBROOKE     CLOUDY    32  32 100 W5        29.67F FOG

_____REGIONAL ONTARIO LOCATIONS_____


CITY           SKY/WX    TMP DP  RH WIND       PRES   REMARKS
OTTAWA         LGT SNOW  32  30  93 N7        29.73F FOG

______KEY______
VSB  - VISIBILITY IN MILES
WCI  - WIND CHILL INDEX
HX   - HEAT INDEX
$$
NNNN



USA.gov is the U.S. government's official web portal to all federal, state and local government web resources and services.